User: anonymous   Login
Location: North Smoke Tower Site
(30.5430°N, 82.3390°W)
Time: 11:11:19
(UTC-04:00)
Language:

Cosmos 1980 Rocket - Orbit

View from above orbital plane
View from above orbital plane
View from above satellite
View from above satellite

Ground track
Ground track

The orbit data is extracted from the following two-line orbital elements,

1 19650U 88102B   15144.05429959 -.00000260  00000-0 -10792-3 0  9990
2 19650 070.9980 162.8748 0016542 254.3382 105.5916 14.15719646369118
Epoch (UTC): 24 May 2015 01:18:11
Eccentricity: 0.0016542
inclination: 70.9980°
perigee height: 828 km
apogee height: 852 km
right ascension of ascending node: 162.8748°
argument of perigee: 254.3382°
revolutions per day: 14.15719646
mean anomaly at epoch: 105.5916°
orbit number at epoch: 36911

The dashed part of the orbit path shows where the satellite is in the earth's shadow,  

DLR